Location: B?dimalle
(17.1788°N, 80.5377°E)
Time: 11:49:28
(UTC+00:00)

Courier 1B Rocket - Pass Details

Date: 18 December 2025
Orbit: 920 x 1201 km, 28.2° (Epoch: 25 January)

Event Time Altitude Azimuth Distance (km) Brightness Sun altitude
Rises 13:04:36 0° 245° (WSW) 3,974 10.2 -13.4°
Reaches altitude 10° 13:07:21 10° 245° (WSW) 3,046 9.0 -14.0°
Maximum altitude 13:15:00 90° 332° (NNW) 1,190 5.4 -15.7°
Enters shadow 13:20:12 24° 66° (ENE) 2,258 6.3 -16.9°
